Location: Newark
(1.4667°N, 173.0333°E)
Time: 13:48:42
(UTC+00:00)

Envisat - Visible Passes

Search period start: 21 March 2019 00:00
Search period end: 31 March 2019 00:00
Orbit: 764 x 766 km, 98.2° (Epoch: 21 March)

Date Brightness Start Highest point End Pass type
(mag) Time Alt. Az. Time Alt. Az. Time Alt. Az.
21 Mar 2.9 07:23:17 10° SSE 07:28:21 72° ENE 07:33:23 10° N visible
22 Mar 5.6 08:26:56 10° SSW 08:30:27 19° WSW 08:33:58 10° WNW visible
23 Mar 3.7 07:48:52 10° S 07:53:48 54° WSW 07:58:44 10° NNW visible
24 Mar 3.1 07:12:14 10° SSE 07:17:10 52° ENE 07:22:04 10° N visible
25 Mar 5.1 08:15:07 10° SSW 08:19:16 26° WSW 08:23:24 10° NW visible
26 Mar 3.2 07:37:33 10° S 07:42:37 74° WSW 07:47:40 10° NNW visible
27 Mar 3.5 07:01:17 10° SE 07:05:58 38° ENE 07:10:38 10° N visible
27 Mar 6.0 08:42:48 10° SW 08:44:43 12° WSW 08:46:37 10° W visible
28 Mar 4.6 08:03:30 10° SSW 08:08:05 35° WSW 08:12:39 10° NW visible
29 Mar 2.9 07:26:21 10° SSE 07:31:26 81° ENE 07:36:30 10° N visible
30 Mar 3.9 06:50:29 10° SE 06:54:47 28° ENE 06:59:04 10° NNE visible
30 Mar 5.7 08:30:21 10° SW 08:33:32 17° WSW 08:36:43 10° WNW visible
